When you browse on this site, cookies collect data to enhance your experience and personalize the content and advertising you see.
Visit our Privacy Policy to learn more. By continuing to use the site, you agree to this use of cookies and data.
EN

Hourly Weather Andreevo-Melentevo

Today, 7 July, Tuesday

Time Temperature Precipitation Wind Pressure Humidity
00:00 +28°C° 0 mm 3 mps 749 mmHg 32%
01:00 +27°C° 0 mm 3 mps 749 mmHg 34%
02:00 +27°C° 0 mm 3 mps 749 mmHg 36%
03:00 +26°C° 0 mm 3 mps 748 mmHg 36%
04:00 +26°C° 0 mm 3 mps 748 mmHg 41%
05:00 +26°C° 0 mm 3 mps 748 mmHg 46%
06:00 +26°C° 0 mm 3 mps 748 mmHg 51%
07:00 +28°C° 0 mm 3 mps 748 mmHg 49%
08:00 +30°C° 0 mm 4 mps 748 mmHg 46%
09:00 +33°C° 0 mm 5 mps 748 mmHg 43%
10:00 +34°C° 0 mm 4 mps 748 mmHg 39%
11:00 +36°C° 0 mm 4 mps 748 mmHg 35%
12:00 +37°C° 0 mm 4 mps 748 mmHg 31%
13:00 +38°C° 0 mm 4 mps 748 mmHg 30%
14:00 +38°C° 0 mm 4 mps 748 mmHg 28%
15:00 +39°C° 0 mm 3 mps 748 mmHg 27%
16:00 +39°C° 0 mm 3 mps 747 mmHg 28%
17:00 +38°C° 0 mm 2 mps 747 mmHg 29%
18:00 +38°C° 0 mm 2 mps 747 mmHg 30%
19:00 +36°C° 0 mm 2 mps 747 mmHg 33%
20:00 +34°C° 0 mm 2 mps 747 mmHg 36%
21:00 +31°C° 0 mm 3 mps 747 mmHg 40%
22:00 +30°C° 0.1 mm 3 mps 747 mmHg 43%
23:00 +29°C° 0.1 mm 3 mps 747 mmHg 47%

Tomorrow, 8 July, Wednesday

Time Temperature Precipitation Wind Pressure Humidity
00:00 +28°C° 0.1 mm 3 mps 747 mmHg 50%
01:00 +27°C° 0.1 mm 3 mps 747 mmHg 52%
02:00 +27°C° 0.1 mm 3 mps 747 mmHg 54%
03:00 +26°C° 0.1 mm 3 mps 748 mmHg 56%
04:00 +26°C° 0.1 mm 3 mps 748 mmHg 57%
05:00 +26°C° 0.1 mm 3 mps 747 mmHg 59%
06:00 +25°C° 0.1 mm 4 mps 747 mmHg 60%
07:00 +27°C° 0.6 mm 3 mps 748 mmHg 57%
08:00 +28°C° 0.6 mm 3 mps 748 mmHg 53%
09:00 +30°C° 0.6 mm 2 mps 748 mmHg 50%
10:00 +30°C° 0.7 mm 2 mps 749 mmHg 51%
11:00 +30°C° 0.7 mm 3 mps 749 mmHg 53%
12:00 +30°C° 0.7 mm 3 mps 749 mmHg 55%
13:00 +32°C° 0.1 mm 4 mps 749 mmHg 52%
14:00 +33°C° 0.1 mm 4 mps 749 mmHg 49%
15:00 +34°C° 0.1 mm 5 mps 750 mmHg 47%
16:00 +33°C° 0.2 mm 5 mps 750 mmHg 50%
17:00 +33°C° 0.2 mm 5 mps 750 mmHg 53%
18:00 +32°C° 0.2 mm 5 mps 750 mmHg 57%
19:00 +29°C° 0.2 mm 6 mps 751 mmHg 64%
20:00 +27°C° 0.2 mm 6 mps 751 mmHg 71%
21:00 +24°C° 0.2 mm 7 mps 752 mmHg 78%
22:00 +23°C° 0.2 mm 6 mps 752 mmHg 80%
23:00 +22°C° 0.2 mm 6 mps 752 mmHg 82%

Day after tomorrow, 9 July, Thursday

Time Temperature Precipitation Wind Pressure Humidity
00:00 +21°C° 0.2 mm 6 mps 752 mmHg 84%
01:00 +21°C° 0 mm 6 mps 753 mmHg 85%
02:00 +20°C° 0 mm 6 mps 753 mmHg 85%
03:00 +19°C° 0 mm 6 mps 753 mmHg 85%
04:00 +19°C° 0 mm 6 mps 754 mmHg 84%
05:00 +17°C° 0 mm 6 mps 754 mmHg 83%
06:00 +17°C° 0 mm 6 mps 754 mmHg 82%
07:00 +20°C° 0 mm 5 mps 755 mmHg 77%
08:00 +21°C° 0 mm 5 mps 755 mmHg 71%
09:00 +22°C° 0 mm 5 mps 756 mmHg 66%
10:00 +23°C° 0 mm 5 mps 756 mmHg 61%
11:00 +26°C° 0 mm 5 mps 756 mmHg 56%
12:00 +27°C° 0 mm 5 mps 757 mmHg 51%
13:00 +28°C° 0 mm 5 mps 757 mmHg 47%
14:00 +28°C° 0 mm 6 mps 757 mmHg 43%
15:00 +29°C° 0 mm 6 mps 757 mmHg 40%
16:00 +29°C° 0 mm 6 mps 757 mmHg 40%
17:00 +28°C° 0 mm 6 mps 757 mmHg 41%
18:00 +28°C° 0 mm 6 mps 757 mmHg 42%
19:00 +26°C° 0 mm 5 mps 758 mmHg 47%
20:00 +25°C° 0 mm 5 mps 758 mmHg 51%
21:00 +22°C° 0 mm 4 mps 758 mmHg 56%
22:00 +22°C° 0 mm 4 mps 759 mmHg 58%
23:00 +21°C° 0 mm 4 mps 759 mmHg 60%

10 July, Friday

Time Temperature Precipitation Wind Pressure Humidity
00:00 +20°C° 0 mm 4 mps 759 mmHg 62%
01:00 +20°C° 0 mm 4 mps 759 mmHg 64%
02:00 +19°C° 0 mm 4 mps 759 mmHg 65%
03:00 +19°C° 0 mm 4 mps 760 mmHg 67%
04:00 +19°C° 0 mm 4 mps 760 mmHg 68%
05:00 +19°C° 0 mm 4 mps 760 mmHg 68%
06:00 +19°C° 0 mm 4 mps 760 mmHg 69%
07:00 +21°C° 0 mm 4 mps 760 mmHg 63%
08:00 +23°C° 0 mm 4 mps 761 mmHg 56%
09:00 +25°C° 0 mm 4 mps 761 mmHg 50%
10:00 +27°C° 0 mm 4 mps 761 mmHg 47%
11:00 +28°C° 0 mm 4 mps 761 mmHg 44%
12:00 +29°C° 0 mm 4 mps 760 mmHg 41%
13:00 +29°C° 0 mm 4 mps 760 mmHg 40%
14:00 +30°C° 0 mm 4 mps 760 mmHg 39%
15:00 +30°C° 0 mm 4 mps 760 mmHg 38%
16:00 +30°C° 0 mm 4 mps 760 mmHg 40%
17:00 +30°C° 0 mm 5 mps 760 mmHg 41%
18:00 +29°C° 0 mm 5 mps 760 mmHg 42%
19:00 +28°C° 0 mm 5 mps 760 mmHg 47%
20:00 +26°C° 0 mm 4 mps 760 mmHg 51%
21:00 +23°C° 0 mm 4 mps 760 mmHg 56%
22:00 +23°C° 0 mm 4 mps 760 mmHg 58%
23:00 +22°C° 0 mm 4 mps 760 mmHg 60%

11 July, Saturday

Time Temperature Precipitation Wind Pressure Humidity
00:00 +21°C° 0 mm 5 mps 760 mmHg 62%
01:00 +20°C° 0 mm 5 mps 760 mmHg 64%
02:00 +20°C° 0 mm 5 mps 760 mmHg 67%
03:00 +19°C° 0 mm 5 mps 760 mmHg 69%
04:00 +20°C° 0 mm 5 mps 760 mmHg 70%
05:00 +20°C° 0 mm 5 mps 760 mmHg 70%
06:00 +20°C° 0 mm 5 mps 760 mmHg 70%
07:00 +22°C° 0 mm 5 mps 760 mmHg 64%
08:00 +25°C° 0 mm 5 mps 760 mmHg 58%
09:00 +27°C° 0 mm 5 mps 760 mmHg 52%
10:00 +28°C° 0 mm 5 mps 760 mmHg 47%
11:00 +29°C° 0 mm 5 mps 759 mmHg 42%
12:00 +30°C° 0 mm 5 mps 759 mmHg 38%
13:00 +32°C° 0 mm 5 mps 759 mmHg 37%
14:00 +32°C° 0 mm 5 mps 758 mmHg 35%
15:00 +33°C° 0 mm 5 mps 758 mmHg 34%
16:00 +32°C° 0 mm 5 mps 758 mmHg 36%
17:00 +32°C° 0 mm 5 mps 757 mmHg 38%
18:00 +32°C° 0 mm 5 mps 757 mmHg 39%
19:00 +29°C° 0 mm 5 mps 757 mmHg 44%
20:00 +27°C° 0 mm 4 mps 757 mmHg 49%
21:00 +26°C° 0 mm 4 mps 757 mmHg 54%
22:00 +25°C° 0 mm 4 mps 756 mmHg 55%
23:00 +25°C° 0 mm 4 mps 756 mmHg 57%

12 July, Sunday

Time Temperature Precipitation Wind Pressure Humidity
00:00 +23°C° 0 mm 5 mps 756 mmHg 59%
01:00 +23°C° 0 mm 4 mps 756 mmHg 61%
02:00 +22°C° 0 mm 4 mps 755 mmHg 63%
03:00 +22°C° 0 mm 4 mps 755 mmHg 65%
04:00 +22°C° 0 mm 4 mps 755 mmHg 67%
05:00 +22°C° 0 mm 4 mps 755 mmHg 69%
06:00 +22°C° 0 mm 4 mps 754 mmHg 70%
07:00 +26°C° 0 mm 4 mps 754 mmHg 64%
08:00 +28°C° 0 mm 3 mps 754 mmHg 58%
09:00 +30°C° 0 mm 3 mps 754 mmHg 52%
10:00 +33°C° 0 mm 3 mps 754 mmHg 48%
11:00 +34°C° 0 mm 3 mps 753 mmHg 43%
12:00 +35°C° 0 mm 3 mps 753 mmHg 39%
13:00 +35°C° 0 mm 2 mps 753 mmHg 39%
14:00 +35°C° 0 mm 2 mps 753 mmHg 38%
15:00 +35°C° 0 mm 2 mps 752 mmHg 38%
16:00 +35°C° 0.1 mm 2 mps 752 mmHg 41%
17:00 +34°C° 0.1 mm 3 mps 752 mmHg 44%
18:00 +33°C° 0.1 mm 4 mps 752 mmHg 48%
19:00 +30°C° 0.1 mm 3 mps 752 mmHg 54%
20:00 +28°C° 0.1 mm 3 mps 752 mmHg 61%
21:00 +26°C° 0.1 mm 3 mps 752 mmHg 68%
22:00 +26°C° 0 mm 3 mps 752 mmHg 70%
23:00 +25°C° 0 mm 3 mps 751 mmHg 73%
Show more